(24697) Rastrelli = 1990 SK28 = 1994 TR

Discovered at Nauchnyj on 1990-09-24 by G. R. Kastel' and L. V. Zhuravleva.
(24697) Rastrelli = 1990 SK28

Carlo Bartolomeo and Francesco Bartolomeo Rastrelli were father (c. 1670-1744) and son (1700-1771), sculptor and architect. The first created the equestrian statue of Peter I, one of the landmarks of St. Petersburg. The second built the Winter Palace, which now houses treasures of the Hermitage. [Ref: Minor Planet Circ. 48160]

Orbit

Orbit type: Main Belt

Note: WebGL enabled browser required.

epoch2024-03-31.0
epoch JD2460400.5
perihelion date2022-09-29.93536
perihelion JD2459852.43536
argument of perihelion (°)20.18968
ascending node (°)346.67905
inclination (°)2.49152
eccentricity0.1566465
perihelion distance (AU)2.1280079
Tisserand w.r.t. Jupiter3.4
ΔV w.r.t. Earth (km/sec)9.2
semimajor axis (AU)2.5232690
mean anomaly (°)134.76909
mean daily motion (°/day)0.24590000
aphelion distance (AU)2.919
period (years)4.01
P-vector [x]0.99274758
P-vector [y]0.10346706
P-vector [z]0.06121111
Q-vector [x]-0.11979946
Q-vector [y]0.89387549
Q-vector [z]0.43201238
absolute magnitude14.23
phase slope0.15
uncertainty0
referenceMPEC 2024-F50
observations used3368
oppositions24
arc length (days)12238
first opposition used1990
last opposition used2024
residual rms (arc-secs)0.59
perturbers coarse indicatorM-v
perturbers precise indicator003Ek
first observation date used1990-09-16.0
last observation date used2024-03-19.0
computer nameMPCLINUX
JD of orbit computation2456966.711378
perihelion JD uncertainty (days)3.1866E-05
argument of perihelion uncertainty (°)6.1021E-05
ascending node uncertainty (°)6.0415E-05
inclination uncertainty (°)4.1906E-06
eccentricity uncertainty 4.6257E-08
perihelion distance uncertainty (AU)1.1767E-07
Minimum Orbit Intersection Distances (in AU)
for orbit epoch: 2460400.5, reference: E2024-GD4
Mercury1.76927
Venus1.40458
Earth1.12672
Mars0.72169
Jupiter2.53301
Saturn6.44316
Uranus15.5432
Neptune27.563

Observations

3432 total observations over interval: 1990 09 16.38611 – 2024 03 19.388774
These data are available for download (format description).

Date (UT) J2000 RA J2000 Dec Magn Location Ref
1990 09 16.38611 01 44 36.18 +12 51 31.4   261 – Palomar Mountain-DSS MPS 29400
1990 09 16.44861 01 44 34.55 +12 51 30.3   261 – Palomar Mountain-DSS MPS 29400
1990 09 24.04164 01 40 39.75 +12 45 16.8 16.5   095 – Crimea-Nauchnyi MPC 19093
1990 09 30.03461 01 36 30.69 +12 33 41.4 16.5   095 – Crimea-Nauchnyi MPC 19093
1990 10 15.24477 01 23 22.00 +11 43 26.0 17.1 V 691 – Steward Observatory, Kitt Peak-Spacewatch MPS 79047
1990 10 15.26644 01 23 20.75 +11 43 21.2 16.9 V 691 – Steward Observatory, Kitt Peak-Spacewatch MPS 79047
1990 10 15.28814 01 23 19.50 +11 43 15.8 17.0 V 691 – Steward Observatory, Kitt Peak-Spacewatch MPS 79047
1990 10 15.90614 01 22 45.22 +11 40 45.1 16.2   095 – Crimea-Nauchnyi MPC 19093
1990 10 15.92003 01 22 44.45 +11 40 42.6 16.2   095 – Crimea-Nauchnyi MPC 19093
1993 05 23.54028 15 20 58.20 -22 17 04.8   260 – Siding Spring Observatory-DSS MPC 49385
1993 05 23.55908 15 20 58.20 -22 17 04.8   260 – Siding Spring Observatory-DSS MPS 29400
1993 05 23.58195 15 20 55.74 -22 16 55.4   260 – Siding Spring Observatory-DSS MPC 49385
1993 05 23.60074 15 20 55.74 -22 16 55.4   260 – Siding Spring Observatory-DSS MPS 29400
1994 10 02.57153 01 23 03.29 +11 14 00.1 16.5   400 – Kitami MPC 24033
1994 10 02.58611 01 23 02.57 +11 13 57.7   400 – Kitami MPC 24033
1994 10 03.52569 01 22 14.96 +11 10 58.8 16.5   400 – Kitami MPC 24033
1994 10 03.54028 01 22 14.22 +11 10 56.9   400 – Kitami MPC 24033
1994 10 03.77885 01 22 02.26 +11 10 07.7 16.8   114 – Engelhardt Observatory, Zelenchukskaya Station MPC 24144
1994 10 03.83440 01 21 59.40 +11 09 58.0   114 – Engelhardt Observatory, Zelenchukskaya Station MPC 24144
1994 10 04.81565 01 21 08.61 +11 06 41.6   114 – Engelhardt Observatory, Zelenchukskaya Station MPC 24144
1994 10 04.88023 01 21 05.18 +11 06 30.0   114 – Engelhardt Observatory, Zelenchukskaya Station MPC 24144
1994 10 05.79690 01 20 17.20 +11 03 21.1   114 – Engelhardt Observatory, Zelenchukskaya Station MPC 24144
1994 10 06.78022 01 19 25.02 +10 59 56.6   114 – Engelhardt Observatory, Zelenchukskaya Station MPC 24144
1994 10 07.81979 01 18 29.25 +10 56 11.7   114 – Engelhardt Observatory, Zelenchukskaya Station MPC 24144
1994 10 08.81842 01 17 35.76 +10 52 27.9   114 – Engelhardt Observatory, Zelenchukskaya Station MPC 24144
1994 10 09.79268 01 16 42.86 +10 48 47.1   114 – Engelhardt Observatory, Zelenchukskaya Station MPC 24144
1996 03 23.25722 09 43 07.60 +14 24 15.4 18.0 V 566 – Haleakala-NEAT/GEODSS MPS 4434
1996 03 23.27804 09 43 07.02 +14 24 17.5 18.6 V 566 – Haleakala-NEAT/GEODSS MPS 4434
1996 03 23.30012 09 43 06.36 +14 24 19.3 18.5 V 566 – Haleakala-NEAT/GEODSS MPS 4434
1998 09 18.38409 01 26 54.23 +11 04 57.6 17.9   704 – Lincoln Laboratory ETS, New Mexico MPS 2168
1998 09 18.39738 01 26 53.70 +11 04 57.9 18.2   704 – Lincoln Laboratory ETS, New Mexico MPS 2168
1998 09 18.41108 01 26 53.16 +11 04 56.3 18.5   704 – Lincoln Laboratory ETS, New Mexico MPS 2168
1998 09 18.42457 01 26 52.78 +11 04 53.4 18.5   704 – Lincoln Laboratory ETS, New Mexico MPS 2168
1998 09 18.43745 01 26 52.20 +11 04 53.5 18.5   704 – Lincoln Laboratory ETS, New Mexico MPS 2168
1998 09 23.79728 01 23 29.12 +10 55 57.6 16.2   327 – Peking Observatory, Xinglong Station MPS 2168
1998 09 23.80370 01 23 28.85 +10 55 56.7   327 – Peking Observatory, Xinglong Station MPS 2168
1998 09 23.80958 01 23 28.55 +10 55 55.9   327 – Peking Observatory, Xinglong Station MPS 2168
1998 09 25.67338 01 22 08.54 +10 51 45.5   327 – Peking Observatory, Xinglong Station MPS 2168
1998 09 25.68404 01 22 08.05 +10 51 44.1   327 – Peking Observatory, Xinglong Station MPS 2168
1998 09 25.69490 01 22 07.55 +10 51 42.6 16.5   327 – Peking Observatory, Xinglong Station MPS 2168
1998 09 26.22122 01 21 44.41 +10 50 26.8 18.0   704 – Lincoln Laboratory ETS, New Mexico MPS 2168
1998 09 26.23788 01 21 43.60 +10 50 23.9   704 – Lincoln Laboratory ETS, New Mexico MPS 2168
1998 09 26.25456 01 21 42.85 +10 50 22.0   704 – Lincoln Laboratory ETS, New Mexico MPS 2168
1998 09 26.27122 01 21 42.08 +10 50 20.3   704 – Lincoln Laboratory ETS, New Mexico MPS 2168
1998 09 26.28786 01 21 41.29 +10 50 16.7   704 – Lincoln Laboratory ETS, New Mexico MPS 2168
1998 09 27.38060 01 20 51.11 +10 47 30.8 18.0   704 – Lincoln Laboratory ETS, New Mexico MPS 2168
1998 09 27.39784 01 20 50.25 +10 47 27.3   704 – Lincoln Laboratory ETS, New Mexico MPS 2168
1998 09 27.41510 01 20 49.48 +10 47 24.7   704 – Lincoln Laboratory ETS, New Mexico MPS 2168
1998 09 27.43235 01 20 48.60 +10 47 22.2   704 – Lincoln Laboratory ETS, New Mexico MPS 2168
1998 09 27.44958 01 20 47.74 +10 47 19.9   704 – Lincoln Laboratory ETS, New Mexico MPS 2168
1998 10 03.66536 01 15 41.50 +10 28 30.4 15.6   327 – Peking Observatory, Xinglong Station MPS 2992
1998 10 03.67813 01 15 40.80 +10 28 27.7   327 – Peking Observatory, Xinglong Station MPS 2992
1998 10 03.69073 01 15 40.13 +10 28 25.7   327 – Peking Observatory, Xinglong Station MPS 2992
1998 10 11.26362 01 08 54.95 +10 00 15.1 16.2 R 699 – Lowell Observatory-LONEOS MPS 2515
1998 10 11.28351 01 08 53.79 +10 00 09.9   699 – Lowell Observatory-LONEOS MPS 2515
1998 10 11.30338 01 08 52.64 +10 00 05.6   699 – Lowell Observatory-LONEOS MPS 2515
1998 10 14.20468 01 06 15.29 +09 48 20.1 17.2   704 – Lincoln Laboratory ETS, New Mexico MPS 2515
1998 10 14.22462 01 06 14.14 +09 48 15.3   704 – Lincoln Laboratory ETS, New Mexico MPS 2515
1998 10 14.24481 01 06 13.06 +09 48 10.8   704 – Lincoln Laboratory ETS, New Mexico MPS 2515
1998 10 14.26494 01 06 11.84 +09 48 05.0 17.7   704 – Lincoln Laboratory ETS, New Mexico MPS 2515
1998 10 14.28492 01 06 10.70 +09 48 01.8   704 – Lincoln Laboratory ETS, New Mexico MPS 2515
1998 10 19.64373 01 01 26.98 +09 25 50.4   327 – Peking Observatory, Xinglong Station MPS 2515
1998 10 19.65541 01 01 26.35 +09 25 47.6   327 – Peking Observatory, Xinglong Station MPS 2515
1998 10 19.66700 01 01 25.72 +09 25 44.6 16.4   327 – Peking Observatory, Xinglong Station MPS 2515
1998 10 20.59544 01 00 38.48 +09 21 55.7   327 – Peking Observatory, Xinglong Station MPS 2515
1998 10 20.60312 01 00 38.08 +09 21 53.7 16.3   327 – Peking Observatory, Xinglong Station MPS 2515
1998 10 20.61066 01 00 37.68 +09 21 52.0   327 – Peking Observatory, Xinglong Station MPS 2515
1998 10 26.62896 00 55 50.02 +08 57 59.9 16.8   327 – Peking Observatory, Xinglong Station MPS 2992
1998 10 26.64605 00 55 49.21 +08 57 56.2   327 – Peking Observatory, Xinglong Station MPS 2992
1998 10 26.66272 00 55 48.43 +08 57 52.3   327 – Peking Observatory, Xinglong Station MPS 2992
1998 10 28.17463 00 54 43.00 +08 52 15.1 16.9   704 – Lincoln Laboratory ETS, New Mexico MPS 2515
1998 10 28.19026 00 54 42.28 +08 52 11.5 16.9   704 – Lincoln Laboratory ETS, New Mexico MPS 2515
1998 10 28.20595 00 54 41.57 +08 52 08.9 16.9   704 – Lincoln Laboratory ETS, New Mexico MPS 2515
1998 10 28.22168 00 54 40.88 +08 52 05.4   704 – Lincoln Laboratory ETS, New Mexico MPS 2515
1998 10 28.23739 00 54 40.17 +08 52 01.9   704 – Lincoln Laboratory ETS, New Mexico MPS 2515
1998 10 29.09986 00 54 04.46 +08 48 54.4   704 – Lincoln Laboratory ETS, New Mexico MPS 2515
1998 10 29.11986 00 54 03.60 +08 48 49.7   704 – Lincoln Laboratory ETS, New Mexico MPS 2515
1998 10 29.14002 00 54 02.74 +08 48 45.7   704 – Lincoln Laboratory ETS, New Mexico MPS 2515
1998 10 29.16003 00 54 01.86 +08 48 41.6   704 – Lincoln Laboratory ETS, New Mexico MPS 2515
1998 10 29.18004 00 54 01.02 +08 48 37.5   704 – Lincoln Laboratory ETS, New Mexico MPS 2515
1998 12 09.14274 00 50 20.23 +08 25 20.7 17.6 R 699 – Lowell Observatory-LONEOS MPS 3304
1998 12 09.16619 00 50 20.92 +08 25 24.1   699 – Lowell Observatory-LONEOS MPS 3304
1998 12 09.18659 00 50 21.50 +08 25 27.1   699 – Lowell Observatory-LONEOS MPS 3304
